Time,TemperatureF,DewpointF,PressureIn,WindDirection,WindDirectionDegrees,WindSpeedMPH,WindSpeedGustMPH,Humidity,HourlyPrecipIn,Conditions,Clouds,dailyrainin,SoftwareType,DateUTC
2013-01-10 00:06:00,40.4,27.0,30.03,WSW,253,10.0,16.0,60,0.00,,,0.00,weatherlink.com 1.10,2013-01-10 05:06:00,
2013-01-10 00:21:00,40.1,27.0,30.03,West,276,8.0,14.0,60,0.00,,,0.00,weatherlink.com 1.10,2013-01-10 05:21:00,
2013-01-10 00:50:00,39.7,27.0,30.04,WSW,250,6.0,10.0,62,0.00,,,0.00,weatherlink.com 1.10,2013-01-10 05:50:00,
2013-01-10 01:05:00,39.6,27.0,30.05,NNW,335,5.0,14.0,62,0.00,,,0.00,weatherlink.com 1.10,2013-01-10 06:05:00,
2013-01-10 01:20:00,39.1,30.0,30.07,NW,312,14.0,24.0,71,0.00,,,0.00,weatherlink.com 1.10,2013-01-10 06:20:00,
2013-01-10 01:35:00,38.5,30.0,30.07,WSW,240,9.0,20.0,72,0.00,,,0.00,weatherlink.com 1.10,2013-01-10 06:35:00,
2013-01-10 01:50:00,38.4,29.0,30.08,West,274,10.0,27.0,70,0.00,,,0.00,weatherlink.com 1.10,2013-01-10 06:50:00,
2013-01-10 02:05:00,38.4,27.0,30.09,WSW,257,10.0,21.0,65,0.00,,,0.00,weatherlink.com 1.10,2013-01-10 07:05:00,
2013-01-10 02:20:00,38.7,27.0,30.10,West,271,9.0,28.0,62,0.00,,,0.00,weatherlink.com 1.10,2013-01-10 07:20:00,
2013-01-10 02:35:00,39.0,27.0,30.11,WNW,287,7.0,22.0,62,0.00,,,0.00,weatherlink.com 1.10,2013-01-10 07:35:00,
2013-01-10 02:50:00,38.6,27.0,30.12,WNW,297,6.0,16.0,64,0.00,,,0.00,weatherlink.com 1.10,2013-01-10 07:50:00,
2013-01-10 03:06:00,38.4,27.0,30.13,NW,318,10.0,28.0,64,0.00,,,0.00,weatherlink.com 1.10,2013-01-10 08:06:00,
2013-01-10 03:21:00,38.5,27.0,30.13,WSW,256,6.0,29.0,63,0.00,,,0.00,weatherlink.com 1.10,2013-01-10 08:21:00,
2013-01-10 03:36:00,38.2,26.0,30.14,NNW,340,8.0,20.0,63,0.00,,,0.00,weatherlink.com 1.10,2013-01-10 08:36:00,
2013-01-10 03:51:00,38.1,26.0,30.16,WNW,284,8.0,23.0,63,0.00,,,0.00,weatherlink.com 1.10,2013-01-10 08:51:00,
2013-01-10 04:06:00,37.8,26.0,30.17,West,281,2.0,25.0,62,0.00,,,0.00,weatherlink.com 1.10,2013-01-10 09:06:00,
2013-01-10 04:21:00,37.7,24.0,30.18,WNW,284,10.0,19.0,59,0.00,,,0.00,weatherlink.com 1.10,2013-01-10 09:21:00,
2013-01-10 04:36:00,37.6,24.0,30.19,WNW,297,8.0,24.0,58,0.00,,,0.00,weatherlink.com 1.10,2013-01-10 09:36:00,
2013-01-10 04:51:00,37.3,24.0,30.19,WNW,294,3.0,18.0,59,0.00,,,0.00,weatherlink.com 1.10,2013-01-10 09:51:00,
2013-01-10 05:06:00,36.7,23.0,30.20,WSW,253,6.0,15.0,58,0.00,,,0.00,weatherlink.com 1.10,2013-01-10 10:06:00,
2013-01-10 05:21:00,36.3,23.0,30.21,WSW,243,11.0,16.0,59,0.00,,,0.00,weatherlink.com 1.10,2013-01-10 10:21:00,
2013-01-10 05:36:00,36.6,22.0,30.21,WSW,248,17.0,20.0,57,0.00,,,0.00,weatherlink.com 1.10,2013-01-10 10:36:00,
2013-01-10 05:51:00,36.1,22.0,30.23,West,269,8.0,15.0,58,0.00,,,0.00,weatherlink.com 1.10,2013-01-10 10:51:00,
2013-01-10 06:06:00,36.1,23.0,30.23,West,269,7.0,18.0,59,0.00,,,0.00,weatherlink.com 1.10,2013-01-10 11:06:00,
2013-01-10 06:21:00,35.7,23.0,30.24,WNW,297,5.0,15.0,61,0.00,,,0.00,weatherlink.com 1.10,2013-01-10 11:21:00,
2013-01-10 06:36:00,35.4,23.0,30.25,North,352,6.0,17.0,61,0.00,,,0.00,weatherlink.com 1.10,2013-01-10 11:36:00,
2013-01-10 06:51:00,35.3,23.0,30.25,WSW,245,8.0,20.0,62,0.00,,,0.00,weatherlink.com 1.10,2013-01-10 11:51:00,
2013-01-10 07:08:00,35.3,24.0,30.26,NNW,344,15.0,17.0,63,0.00,,,0.00,weatherlink.com 1.10,2013-01-10 12:08:00,
2013-01-10 07:21:00,35.1,24.0,30.27,West,274,5.0,16.0,63,0.00,,,0.00,weatherlink.com 1.10,2013-01-10 12:21:00,
2013-01-10 07:36:00,34.9,23.0,30.28,NE,41,6.0,11.0,63,0.00,,,0.00,weatherlink.com 1.10,2013-01-10 12:36:00,
2013-01-10 07:51:00,35.1,23.0,30.30,WSW,252,5.0,19.0,62,0.00,,,0.00,weatherlink.com 1.10,2013-01-10 12:51:00,
2013-01-10 08:22:00,35.3,23.0,30.31,NW,304,8.0,14.0,61,0.00,,,0.00,weatherlink.com 1.10,2013-01-10 13:22:00,
2013-01-10 08:38:00,35.7,23.0,30.31,WNW,292,5.0,22.0,61,0.00,,,0.00,weatherlink.com 1.10,2013-01-10 13:38:00,
2013-01-10 08:52:00,36.2,23.0,30.32,West,280,4.0,17.0,59,0.00,,,0.00,weatherlink.com 1.10,2013-01-10 13:52:00,
2013-01-10 09:07:00,36.8,23.0,30.32,NW,307,12.0,19.0,57,0.00,,,0.00,weatherlink.com 1.10,2013-01-10 14:07:00,
2013-01-10 09:22:00,37.5,23.0,30.31,WNW,293,19.0,24.0,56,0.00,,,0.00,weatherlink.com 1.10,2013-01-10 14:22:00,
2013-01-10 09:37:00,37.9,23.0,30.32,NW,307,5.0,21.0,55,0.00,,,0.00,weatherlink.com 1.10,2013-01-10 14:37:00,
2013-01-10 10:07:00,38.7,23.0,30.33,WSW,250,7.0,29.0,54,0.00,,,0.00,weatherlink.com 1.10,2013-01-10 15:07:00,
2013-01-10 10:22:00,39.2,23.0,30.33,WNW,297,4.0,21.0,53,0.00,,,0.00,weatherlink.com 1.10,2013-01-10 15:22:00,
2013-01-10 10:37:00,39.7,23.0,30.34,SW,228,5.0,21.0,52,0.00,,,0.00,weatherlink.com 1.10,2013-01-10 15:37:00,
2013-01-10 10:52:00,40.0,24.0,30.34,West,278,3.0,13.0,53,0.00,,,0.00,weatherlink.com 1.10,2013-01-10 15:52:00,
2013-01-10 11:07:00,40.0,23.0,30.34,NNW,328,8.0,21.0,51,0.00,,,0.00,weatherlink.com 1.10,2013-01-10 16:07:00,
2013-01-10 11:22:00,40.1,23.0,30.34,North,8,8.0,14.0,51,0.00,,,0.00,weatherlink.com 1.10,2013-01-10 16:22:00,
2013-01-10 11:37:00,40.3,23.0,30.33,WNW,282,9.0,18.0,51,0.00,,,0.00,weatherlink.com 1.10,2013-01-10 16:37:00,
2013-01-10 11:52:00,40.5,23.0,30.33,NW,304,14.0,20.0,51,0.00,,,0.00,weatherlink.com 1.10,2013-01-10 16:52:00,
2013-01-10 12:07:00,40.4,24.0,30.32,West,273,11.0,23.0,52,0.00,,,0.00,weatherlink.com 1.10,2013-01-10 17:07:00,
2013-01-10 12:22:00,40.5,23.0,30.32,WSW,238,7.0,22.0,51,0.00,,,0.00,weatherlink.com 1.10,2013-01-10 17:22:00,
2013-01-10 12:37:00,40.8,24.0,30.32,NNE,20,10.0,17.0,51,0.00,,,0.00,weatherlink.com 1.10,2013-01-10 17:37:00,
2013-01-10 12:52:00,40.8,24.0,30.32,WNW,283,5.0,19.0,51,0.00,,,0.00,weatherlink.com 1.10,2013-01-10 17:52:00,
2013-01-10 13:07:00,41.1,24.0,30.34,North,5,3.0,19.0,50,0.00,,,0.00,weatherlink.com 1.10,2013-01-10 18:07:00,
2013-01-10 13:22:00,41.4,23.0,30.35,WNW,295,9.0,16.0,48,0.00,,,0.00,weatherlink.com 1.10,2013-01-10 18:22:00,
2013-01-10 13:38:00,41.6,24.0,30.35,NW,312,7.0,15.0,49,0.00,,,0.00,weatherlink.com 1.10,2013-01-10 18:38:00,
2013-01-10 13:53:00,41.5,23.0,30.37,WSW,246,8.0,12.0,48,0.00,,,0.00,weatherlink.com 1.10,2013-01-10 18:53:00,
2013-01-10 14:08:00,40.9,23.0,30.36,NNW,338,6.0,16.0,50,0.00,,,0.00,weatherlink.com 1.10,2013-01-10 19:08:00,
2013-01-10 14:23:00,41.0,23.0,30.38,WNW,297,8.0,18.0,49,0.00,,,0.00,weatherlink.com 1.10,2013-01-10 19:23:00,
2013-01-10 14:38:00,40.4,23.0,30.39,West,271,12.0,15.0,50,0.00,,,0.00,weatherlink.com 1.10,2013-01-10 19:38:00,
2013-01-10 14:53:00,40.3,23.0,30.38,WSW,246,6.0,12.0,50,0.00,,,0.00,weatherlink.com 1.10,2013-01-10 19:53:00,
2013-01-10 15:08:00,40.1,23.0,30.39,West,271,5.0,11.0,50,0.00,,,0.00,weatherlink.com 1.10,2013-01-10 20:08:00,
2013-01-10 15:23:00,40.1,23.0,30.41,NW,308,2.0,10.0,50,0.00,,,0.00,weatherlink.com 1.10,2013-01-10 20:23:00,
2013-01-10 15:53:00,38.8,23.0,30.41,WNW,293,3.0,11.0,54,0.00,,,0.00,weatherlink.com 1.10,2013-01-10 20:53:00,
2013-01-10 16:23:00,38.1,23.0,30.43,WNW,285,5.0,9.0,55,0.00,,,0.00,weatherlink.com 1.10,2013-01-10 21:23:00,
2013-01-10 16:38:00,37.5,23.0,30.44,WNW,293,8.0,11.0,56,0.00,,,0.00,weatherlink.com 1.10,2013-01-10 21:38:00,
2013-01-10 16:53:00,37.5,23.0,30.44,West,276,8.0,14.0,56,0.00,,,0.00,weatherlink.com 1.10,2013-01-10 21:53:00,
2013-01-10 17:08:00,36.5,24.0,30.43,WNW,302,6.0,8.0,60,0.00,,,0.00,weatherlink.com 1.10,2013-01-10 22:08:00,
2013-01-10 17:38:00,36.0,24.0,30.44,WSW,253,3.0,13.0,61,0.00,,,0.00,weatherlink.com 1.10,2013-01-10 22:38:00,
2013-01-10 17:53:00,35.5,24.0,30.45,West,274,3.0,11.0,63,0.00,,,0.00,weatherlink.com 1.10,2013-01-10 22:53:00,
2013-01-10 18:08:00,35.2,23.0,30.45,West,274,3.0,7.0,62,0.00,,,0.00,weatherlink.com 1.10,2013-01-10 23:08:00,
2013-01-10 18:38:00,33.1,23.0,30.47,SSE,151,1.0,4.0,67,0.00,,,0.00,weatherlink.com 1.10,2013-01-10 23:38:00,
2013-01-10 19:23:00,34.5,23.0,30.47,NW,306,3.0,16.0,64,0.00,,,0.00,weatherlink.com 1.10,2013-01-11 00:23:00,
2013-01-10 19:38:00,34.2,23.0,30.48,West,280,0.0,11.0,64,0.00,,,0.00,weatherlink.com 1.10,2013-01-11 00:38:00,
2013-01-10 20:08:00,32.9,23.0,30.48,West,278,8.0,8.0,68,0.00,,,0.00,weatherlink.com 1.10,2013-01-11 01:08:00,
2013-01-10 20:23:00,32.5,24.0,30.48,West,259,5.0,9.0,70,0.00,,,0.00,weatherlink.com 1.10,2013-01-11 01:23:00,
2013-01-10 20:38:00,32.0,23.0,30.49,WNW,297,2.0,5.0,70,0.00,,,0.00,weatherlink.com 1.10,2013-01-11 01:38:00,
2013-01-10 21:08:00,32.1,23.0,30.51,WSW,256,2.0,8.0,69,0.00,,,0.00,weatherlink.com 1.10,2013-01-11 02:08:00,
2013-01-10 21:23:00,31.6,22.0,30.50,WNW,296,2.0,8.0,69,0.00,,,0.00,weatherlink.com 1.10,2013-01-11 02:23:00,
2013-01-10 21:39:00,31.1,23.0,30.51,WSW,240,0.0,5.0,72,0.00,,,0.00,weatherlink.com 1.10,2013-01-11 02:39:00,
2013-01-10 21:53:00,31.2,22.0,30.51,SW,236,0.0,6.0,70,0.00,,,0.00,weatherlink.com 1.10,2013-01-11 02:53:00,
2013-01-10 22:08:00,31.0,23.0,30.51,WNW,297,2.0,7.0,72,0.00,,,0.00,weatherlink.com 1.10,2013-01-11 03:08:00,
2013-01-10 22:24:00,30.9,23.0,30.51,NNE,24,0.0,8.0,72,0.00,,,0.00,weatherlink.com 1.10,2013-01-11 03:24:00,
2013-01-10 22:39:00,31.2,23.0,30.52,West,262,0.0,5.0,71,0.00,,,0.00,weatherlink.com 1.10,2013-01-11 03:39:00,
2013-01-10 22:54:00,31.3,23.0,30.52,West,281,2.0,7.0,71,0.00,,,0.00,weatherlink.com 1.10,2013-01-11 03:54:00,
2013-01-10 23:09:00,30.0,23.0,30.52,SE,143,2.0,4.0,74,0.00,,,0.00,weatherlink.com 1.10,2013-01-11 04:09:00,
2013-01-10 23:39:00,29.0,23.0,30.52,WSW,242,1.0,2.0,77,0.00,,,0.00,weatherlink.com 1.10,2013-01-11 04:39:00,
2013-01-10 23:54:00,27.8,23.0,30.52,West,267,0.0,1.0,81,0.00,,,0.00,weatherlink.com 1.10,2013-01-11 04:54:00,